Regional Weather Roundup
Issued by NWS

Home | Current Version | Previous Version | Graphics & Text | Print | Product List | Glossary On
Versions: 1 2 3 4 5 6 7 8 9 10 11 12 13 14 15 16 17 18 19 20 21 22 23 24 25 26 27 28 29 30 31 32 33 34 35 36 37 38 39 40 41 42 43 44 45 46 47 48 49 50
000
ASUS43 KBIS 312302
RWRND

NORTH DAKOTA REGIONAL WEATHER ROUNDUP
NATIONAL WEATHER SERVICE BISMARCK ND
600 PM CDT MON AUG 31 2015

NOTE: "FAIR" INDICATES FEW OR NO CLOUDS BELOW 12,000 FEET WITH NO
SIGNIFICANT WEATHER AND/OR OBSTRUCTIONS TO VISIBILITY.


NDZ001>003-009>011-017-010000-
NORTHWEST NORTH DAKOTA

CITY           SKY/WX    TMP DP  RH WIND       PRES   REMARKS
WILLISTON      MOSUNNY   80  34  19 W20       29.84S
MINOT          SUNNY     78  38  23 W17       29.82S
MINOT AFB      SUNNY     80  41  24 SW15G24   29.81R
$$

NDZ018>021-031>035-040>046-010000-
SOUTHWEST NORTH DAKOTA

CITY           SKY/WX    TMP DP  RH WIND       PRES   REMARKS
BISMARCK       MOSUNNY   83  43  24 W9        29.87S
DICKINSON      SUNNY     78  38  23 W14G21    29.88F
GARRISON         N/A     77  44  30 W15       29.86F
HETTINGER ARPT SUNNY     79  39  23 S5        29.92S
$$

NDZ004>008-012>016-024-026-027-054-010000-
NORTHEAST NORTH DAKOTA

CITY           SKY/WX    TMP DP  RH WIND       PRES   REMARKS
GRAND FORKS    CLOUDY    78  58  49 W13       29.79R
GRND FRKS AFB  CLOUDY    76  57  50 W8        29.81R
DEVILS LAKE    MOSUNNY   79  43  27 W15       29.81S
$$

NDZ022-023-025-028>030-036>039-047>053-010000-
SOUTHEAST NORTH DAKOTA

CITY           SKY/WX    TMP DP  RH WIND       PRES   REMARKS
FARGO          CLOUDY    80  66  62 SE3       29.82R
JAMESTOWN      PTSUNNY   75  56  51 W8        29.86R
$$



USA.gov is the U.S. government's official web portal to all federal, state and local government web resources and services.